This is the latest recevied weather packets stored in our database for station/object N9BSW. If no packets are shown the sender has not sent any weather packets the latest 10 day(s).
| Time | Temp. | Humidity | Pressure | Rain* | Wind** | Luminosity | Snow |
|---|---|---|---|---|---|---|---|
| 1777571535 | 15° C | 43% | 1017 hPa | 0 mm | - | 185 W/m² | - |
| 1777571232 | 15° C | 42% | 1016.9 hPa | 0 mm | - | 293 W/m² | - |
| 1777570928 | 15° C | 38% | 1017.2 hPa | 0 mm | - | 878 W/m² | - |
| 1777570623 | 15° C | 42% | 1017.3 hPa | 0 mm | - | 860 W/m² | - |
| 1777570320 | 15° C | 41% | 1017.2 hPa | 0 mm | - | 856 W/m² | - |
| 1777570016 | 15° C | 42% | 1017.4 hPa | 0 mm | - | 844 W/m² | - |
| 1777569712 | 14.44° C | 43% | 1017.5 hPa | 0 mm | - | 852 W/m² | - |
| 1777569408 | 15° C | 40% | 1017.6 hPa | 0 mm | - | 846 W/m² | - |
| 1777569104 | 15° C | 43% | 1017.4 hPa | 0 mm | - | 839 W/m² | - |
| 1777568802 | 14.44° C | 45% | 1017.4 hPa | 0 mm | - | 831 W/m² | - |
| 1777568499 | 15° C | 42% | 1017.3 hPa | 0 mm | - | 825 W/m² | - |
| 1777568195 | 14.44° C | 41% | 1017.5 hPa | 0 mm | - | 818 W/m² | - |
| 1777567892 | 14.44° C | 40% | 1017.4 hPa | 0 mm | - | 819 W/m² | - |
| 1777567588 | 13.89° C | 39% | 1017.6 hPa | 0 mm | - | 812 W/m² | - |
| 1777567286 | 13.89° C | 46% | 1017.5 hPa | 0 mm | - | 807 W/m² | - |
| 1777566984 | 13.33° C | 41% | 1017.7 hPa | 0 mm | - | 801 W/m² | - |
| 1777566682 | 13.89° C | 39% | 1017.8 hPa | 0 mm | - | 796 W/m² | - |
| 1777566379 | 14.44° C | 43% | 1017.6 hPa | 0 mm | - | 787 W/m² | - |
| 1777566076 | 14.44° C | 46% | 1017.7 hPa | 0 mm | - | 785 W/m² | - |
| 1777565771 | 13.89° C | 46% | 1017.8 hPa | 0 mm | - | 774 W/m² | - |
| 1777565468 | 13.89° C | 49% | 1017.9 hPa | 0 mm | - | 780 W/m² | - |
| 1777565165 | 13.33° C | 46% | 1018 hPa | 0 mm | - | 760 W/m² | - |
| 1777564861 | 13.89° C | 45% | 1018 hPa | 0 mm | - | 746 W/m² | - |
| 1777564561 | 13.33° C | 44% | 1018 hPa | 0 mm | - | 734 W/m² | - |
| 1777564257 | 13.33° C | 51% | 1018.2 hPa | 0 mm | - | 728 W/m² | - |
* Rain latest hour (hover to see other rain measurements)
** Current wind speed in m/s (hover to see current wind gust speed)